When you browse on this site, cookies collect data to enhance your experience and personalize the content and advertising you see.
Visit our Privacy Policy to learn more. By continuing to use the site, you agree to this use of cookies and data.
  • In Switzerland
  • List of Countries
  • For 7 days
  • Water Temperature
  • Satellite Maps
  • Weather Map
  • Weather Widgets
  • user-avatar
    Login

    Hourly Weather Yulara

    Today, 12 December, Wednesday

    Time Temperature Precipitation Wind Pressure Humidity
    00:00 +37°C° 0 mm 3 mps 712 mmHg 20%
    01:00 +37°C° 0 mm 2 mps 713 mmHg 20%
    02:00 +37°C° 0 mm 2 mps 713 mmHg 21%
    03:00 +37°C° 0 mm 2 mps 713 mmHg 21%
    04:00 +36°C° 0 mm 4 mps 713 mmHg 23%
    05:00 +35°C° 0 mm 5 mps 713 mmHg 25%
    06:00 +35°C° 0 mm 7 mps 713 mmHg 27%
    07:00 +36°C° 0 mm 7 mps 713 mmHg 25%
    08:00 +39°C° 0 mm 7 mps 713 mmHg 23%
    09:00 +40°C° 0 mm 7 mps 713 mmHg 20%
    10:00 +41°C° 0 mm 6 mps 713 mmHg 19%
    11:00 +41°C° 0 mm 5 mps 713 mmHg 18%
    12:00 +42°C° 0 mm 4 mps 713 mmHg 17%
    13:00 +42°C° 0 mm 4 mps 712 mmHg 17%
    14:00 +42°C° 0 mm 3 mps 711 mmHg 16%
    15:00 +43°C° 0 mm 3 mps 711 mmHg 16%
    16:00 +43°C° 0 mm 3 mps 711 mmHg 16%
    17:00 +43°C° 0 mm 4 mps 711 mmHg 16%
    18:00 +43°C° 0 mm 4 mps 711 mmHg 15%
    19:00 +41°C° 0 mm 6 mps 712 mmHg 18%
    20:00 +40°C° 0 mm 7 mps 712 mmHg 20%
    21:00 +39°C° 0 mm 9 mps 713 mmHg 23%
    22:00 +36°C° 0 mm 10 mps 713 mmHg 30%
    23:00 +33°C° 0 mm 12 mps 714 mmHg 38%

    Tomorrow, 13 December, Thursday

    Time Temperature Precipitation Wind Pressure Humidity
    00:00 +29°C° 0 mm 13 mps 714 mmHg 45%
    01:00 +28°C° 0.2 mm 12 mps 714 mmHg 45%
    02:00 +27°C° 0.2 mm 11 mps 715 mmHg 45%
    03:00 +26°C° 0.2 mm 10 mps 715 mmHg 45%
    04:00 +26°C° 0 mm 10 mps 715 mmHg 44%
    05:00 +24°C° 0 mm 10 mps 716 mmHg 43%
    06:00 +23°C° 0 mm 10 mps 716 mmHg 42%
    07:00 +24°C° 0 mm 10 mps 716 mmHg 38%
    08:00 +26°C° 0 mm 9 mps 717 mmHg 34%
    09:00 +27°C° 0 mm 9 mps 717 mmHg 30%
    10:00 +29°C° 0 mm 9 mps 717 mmHg 27%
    11:00 +32°C° 0 mm 9 mps 716 mmHg 23%
    12:00 +34°C° 0 mm 8 mps 716 mmHg 19%
    13:00 +35°C° 0 mm 8 mps 716 mmHg 18%
    14:00 +37°C° 0 mm 8 mps 715 mmHg 16%
    15:00 +38°C° 0 mm 7 mps 715 mmHg 14%
    16:00 +37°C° 0 mm 8 mps 715 mmHg 13%
    17:00 +35°C° 0 mm 8 mps 715 mmHg 12%
    18:00 +35°C° 0 mm 8 mps 715 mmHg 12%
    19:00 +33°C° 0 mm 8 mps 715 mmHg 13%
    20:00 +32°C° 0 mm 8 mps 715 mmHg 14%
    21:00 +29°C° 0 mm 8 mps 716 mmHg 15%
    22:00 +28°C° 0 mm 8 mps 716 mmHg 16%
    23:00 +27°C° 0 mm 8 mps 716 mmHg 18%

    Day after tomorrow, 14 December, Friday

    Time Temperature Precipitation Wind Pressure Humidity
    00:00 +26°C° 0 mm 9 mps 716 mmHg 19%
    01:00 +24°C° 0 mm 9 mps 716 mmHg 22%
    02:00 +23°C° 0 mm 9 mps 715 mmHg 24%
    03:00 +22°C° 0 mm 9 mps 715 mmHg 27%
    04:00 +21°C° 0 mm 8 mps 715 mmHg 30%
    05:00 +20°C° 0 mm 7 mps 716 mmHg 33%
    06:00 +18°C° 0 mm 7 mps 716 mmHg 36%
    07:00 +21°C° 0 mm 7 mps 716 mmHg 32%
    08:00 +22°C° 0 mm 6 mps 716 mmHg 29%
    09:00 +23°C° 0 mm 6 mps 717 mmHg 26%
    10:00 +26°C° 0 mm 6 mps 716 mmHg 22%
    11:00 +27°C° 0 mm 6 mps 716 mmHg 18%
    12:00 +29°C° 0 mm 5 mps 716 mmHg 14%
    13:00 +30°C° 0 mm 5 mps 715 mmHg 13%
    14:00 +32°C° 0 mm 5 mps 714 mmHg 12%
    15:00 +33°C° 0 mm 5 mps 714 mmHg 11%
    16:00 +33°C° 0 mm 5 mps 713 mmHg 12%
    17:00 +32°C° 0 mm 6 mps 713 mmHg 12%
    18:00 +32°C° 0 mm 6 mps 713 mmHg 12%
    19:00 +30°C° 0 mm 6 mps 714 mmHg 14%
    20:00 +29°C° 0 mm 6 mps 714 mmHg 15%
    21:00 +27°C° 0 mm 6 mps 714 mmHg 17%
    22:00 +26°C° 0 mm 6 mps 714 mmHg 18%
    23:00 +26°C° 0 mm 5 mps 714 mmHg 19%

    15 December, Saturday

    Time Temperature Precipitation Wind Pressure Humidity
    00:00 +25°C° 0 mm 5 mps 714 mmHg 20%
    01:00 +23°C° 0 mm 5 mps 714 mmHg 21%
    02:00 +22°C° 0 mm 5 mps 713 mmHg 23%
    03:00 +21°C° 0 mm 4 mps 713 mmHg 24%
    04:00 +21°C° 0 mm 4 mps 713 mmHg 25%
    05:00 +20°C° 0 mm 4 mps 713 mmHg 26%
    06:00 +20°C° 0 mm 4 mps 713 mmHg 28%
    07:00 +21°C° 0 mm 4 mps 714 mmHg 26%
    08:00 +23°C° 0 mm 4 mps 714 mmHg 24%
    09:00 +25°C° 0 mm 4 mps 714 mmHg 22%
    10:00 +27°C° 0 mm 3 mps 714 mmHg 20%
    11:00 +28°C° 0 mm 3 mps 714 mmHg 17%
    12:00 +30°C° 0 mm 2 mps 713 mmHg 15%
    13:00 +31°C° 0 mm 2 mps 713 mmHg 13%
    14:00 +32°C° 0 mm 2 mps 712 mmHg 12%
    15:00 +35°C° 0 mm 2 mps 712 mmHg 10%
    16:00 +35°C° 0 mm 2 mps 712 mmHg 10%
    17:00 +35°C° 0 mm 3 mps 712 mmHg 10%
    18:00 +35°C° 0 mm 3 mps 712 mmHg 9%
    19:00 +34°C° 0 mm 3 mps 712 mmHg 10%
    20:00 +33°C° 0 mm 3 mps 712 mmHg 11%
    21:00 +30°C° 0 mm 4 mps 713 mmHg 12%
    22:00 +29°C° 0 mm 4 mps 713 mmHg 13%
    23:00 +29°C° 0 mm 3 mps 713 mmHg 13%

    16 December, Sunday

    Time Temperature Precipitation Wind Pressure Humidity
    00:00 +28°C° 0 mm 3 mps 713 mmHg 14%
    01:00 +27°C° 0 mm 3 mps 712 mmHg 16%
    02:00 +27°C° 0 mm 3 mps 712 mmHg 17%
    03:00 +26°C° 0 mm 3 mps 712 mmHg 19%
    04:00 +26°C° 0 mm 3 mps 712 mmHg 22%
    05:00 +25°C° 0 mm 4 mps 713 mmHg 25%
    06:00 +25°C° 0 mm 4 mps 713 mmHg 28%
    07:00 +27°C° 0 mm 5 mps 713 mmHg 24%
    08:00 +30°C° 0 mm 6 mps 713 mmHg 20%
    09:00 +33°C° 0 mm 6 mps 714 mmHg 17%
    10:00 +35°C° 0 mm 5 mps 713 mmHg 14%
    11:00 +37°C° 0 mm 4 mps 713 mmHg 12%
    12:00 +38°C° 0 mm 3 mps 712 mmHg 10%
    13:00 +39°C° 0 mm 2 mps 712 mmHg 10%
    14:00 +40°C° 0 mm 1 mps 711 mmHg 9%
    15:00 +38°C° 0 mm 0 mps 711 mmHg 9%
    16:00 +41°C° 0 mm 1 mps 711 mmHg 9%
    17:00 +42°C° 0 mm 1 mps 711 mmHg 9%
    18:00 +42°C° 0 mm 2 mps 711 mmHg 9%
    19:00 +40°C° 0 mm 2 mps 711 mmHg 10%
    20:00 +39°C° 0 mm 2 mps 712 mmHg 11%
    21:00 +38°C° 0 mm 3 mps 712 mmHg 12%
    22:00 +37°C° 0 mm 4 mps 711 mmHg 13%
    23:00 +36°C° 0 mm 5 mps 711 mmHg 14%

    17 December, Monday

    Time Temperature Precipitation Wind Pressure Humidity
    00:00 +35°C° 0 mm 6 mps 711 mmHg 14%
    01:00 +34°C° 0 mm 6 mps 711 mmHg 15%
    02:00 +34°C° 0 mm 6 mps 710 mmHg 15%
    03:00 +33°C° 0 mm 6 mps 710 mmHg 16%
    04:00 +33°C° 0 mm 6 mps 710 mmHg 17%
    05:00 +32°C° 0 mm 5 mps 711 mmHg 17%
    06:00 +32°C° 0 mm 5 mps 711 mmHg 17%
    07:00 +35°C° 0 mm 6 mps 712 mmHg 15%
    08:00 +38°C° 0 mm 7 mps 712 mmHg 12%
    09:00 +42°C° 0 mm 9 mps 712 mmHg 9%
    10:00 +44°C° 0 mm 9 mps 712 mmHg 9%
    11:00 +47°C° 0 mm 9 mps 712 mmHg 9%
    12:00 +49°C° 0 mm 9 mps 711 mmHg 9%
    13:00 +49°C° 0 mm 8 mps 711 mmHg 9%
    14:00 +49°C° 0 mm 8 mps 710 mmHg 10%
    15:00 +49°C° 0 mm 7 mps 710 mmHg 10%
    16:00 +47°C° 0 mm 7 mps 710 mmHg 10%
    17:00 +46°C° 0 mm 6 mps 710 mmHg 11%
    18:00 +46°C° 0 mm 5 mps 710 mmHg 11%
    19:00 +45°C° 0 mm 5 mps 710 mmHg 12%
    20:00 +43°C° 0 mm 4 mps 710 mmHg 12%
    21:00 +41°C° 0 mm 4 mps 711 mmHg 13%
    22:00 +40°C° 0 mm 3 mps 711 mmHg 14%
    23:00 +39°C° 0 mm 3 mps 710 mmHg 14%
    Show more